(346491) = 2008 UA62

Discovered at Kitt Peak on 2008-10-21 by Spacewatch.

Orbit

Orbit type: Main Belt

Note: WebGL enabled browser required.

epoch2023-09-13.0
epoch JD2460200.5
perihelion date2022-06-26.28385
perihelion JD2459756.78385
argument of perihelion (°)235.98235
ascending node (°)28.86589
inclination (°)9.86390
eccentricity0.0282103
perihelion distance (AU)2.9293144
Tisserand w.r.t. Jupiter3.2
ΔV w.r.t. Earth (km/sec)11.1
semimajor axis (AU)3.0143502
mean anomaly (°)83.56386
mean daily motion (°/day)0.18832730
aphelion distance (AU)3.099
period (years)5.23
P-vector [x]-0.09570924
P-vector [y]-0.84744984
P-vector [z]-0.52217671
Q-vector [x]0.99196788
Q-vector [y]-0.03761735
Q-vector [z]-0.12076694
absolute magnitude15.64
phase slope0.15
uncertainty0
referenceMPEC 2023-X165
observations used404
oppositions14
arc length (days)10509
first opposition used1995
last opposition used2023
residual rms (arc-secs)0.67
perturbers coarse indicatorM-v
perturbers precise indicator003Ek
first observation date used1995-03-01.0
last observation date used2023-12-08.0
computer nameMPCLINUX
JD of orbit computation2456966.892940
perihelion JD uncertainty (days)8.9187E-04
argument of perihelion uncertainty (°)1.7042E-04
ascending node uncertainty (°)2.5688E-05
inclination uncertainty (°)1.3177E-05
eccentricity uncertainty 9.6504E-08
perihelion distance uncertainty (AU)2.7767E-07
Minimum Orbit Intersection Distances (in AU)
for orbit epoch: 2460200.5, reference: E2023-VL1
Mercury2.46435
Venus2.21129
Earth1.92695
Mars1.35375
Jupiter1.89994
Saturn6.01647
Uranus15.4388
Neptune26.7765

Observations

412 total observations over interval: 1995 03 01.47119 – 2023 12 08.112985
These data are available for download (format description).

Date (UT) J2000 RA J2000 Dec Magn Location Ref
1995 03 01.47119 12 54 54.92 +01 06 13.9 20.4 V 691 – Steward Observatory, Kitt Peak-Spacewatch MPS 270393
1995 03 01.49265 12 54 54.18 +01 06 16.9   691 – Steward Observatory, Kitt Peak-Spacewatch MPS 270393
1995 03 01.51404 12 54 53.54 +01 06 19.5   691 – Steward Observatory, Kitt Peak-Spacewatch MPS 270393
2002 09 07.96404 23 35 41.35 -13 21 28.8 19.2 R 599 – Campo Imperatore-CINEOS MPS 270393
2002 09 07.97913 23 35 40.60 -13 21 31.4 19.1 R 599 – Campo Imperatore-CINEOS MPS 270393
2002 09 07.99212 23 35 39.90 -13 21 34.3 19.2 R 599 – Campo Imperatore-CINEOS MPS 270393
2002 09 08.00483 23 35 39.28 -13 21 36.5 19.1 R 599 – Campo Imperatore-CINEOS MPS 270393
2005 03 09.25496 10 02 43.69 +24 43 10.1 19.3 R 703 – Catalina Sky Survey MPS 270393
2005 03 09.26299 10 02 43.29 +24 43 09.3 20.1 R 703 – Catalina Sky Survey MPS 270393
2005 03 09.27110 10 02 42.81 +24 43 09.4 20.1 R 703 – Catalina Sky Survey MPS 270393
2005 03 09.27910 10 02 42.39 +24 43 08.2 19.9 R 703 – Catalina Sky Survey MPS 270393
2008 09 25.40890 03 36 00.46 +22 12 20.1 20.6 V G96 – Mt. Lemmon Survey MPS 267661
2008 09 25.41512 03 36 00.36 +22 12 21.2 20.7 V G96 – Mt. Lemmon Survey MPS 267661
2008 09 25.42135 03 36 00.28 +22 12 22.2 20.5 V G96 – Mt. Lemmon Survey MPS 267661
2008 09 25.42769 03 36 00.25 +22 12 22.9 20.5 V G96 – Mt. Lemmon Survey MPS 267661
2008 10 21.26846 03 23 55.68 +22 56 00.9 20.5 V 691 – Steward Observatory, Kitt Peak-Spacewatch MPS 261852
2008 10 21.28612 03 23 54.87 +22 56 01.4 20.4 V 691 – Steward Observatory, Kitt Peak-Spacewatch MPS 261852
2008 10 21.30379 03 23 54.06 +22 56 02.0 20.4 V 691 – Steward Observatory, Kitt Peak-Spacewatch MPS 261852
2008 10 25.20534 03 20 51.68 +22 57 44.0 20.3 V 691 – Steward Observatory, Kitt Peak-Spacewatch MPS 261852
2008 10 25.22303 03 20 50.81 +22 57 44.2 20.5 V 691 – Steward Observatory, Kitt Peak-Spacewatch MPS 261852
2008 10 25.24073 03 20 49.91 +22 57 44.9 20.3 V 691 – Steward Observatory, Kitt Peak-Spacewatch MPS 261852
2008 10 30.22437 03 16 36.93 +22 57 54.5 20.9 V 691 – Steward Observatory, Kitt Peak-Spacewatch MPS 263445
2008 10 30.24209 03 16 35.99 +22 57 54.9 20.1 V 691 – Steward Observatory, Kitt Peak-Spacewatch MPS 263445
2008 10 30.25980 03 16 35.05 +22 57 55.0 20.2 V 691 – Steward Observatory, Kitt Peak-Spacewatch MPS 263445
2008 11 09.21686 03 07 27.72 +22 51 56.8 19.8 V 691 – Steward Observatory, Kitt Peak-Spacewatch MPS 264693
2008 11 09.23450 03 07 26.69 +22 51 55.9 19.9 V 691 – Steward Observatory, Kitt Peak-Spacewatch MPS 264693
2008 11 09.25214 03 07 25.70 +22 51 54.8 19.8 V 691 – Steward Observatory, Kitt Peak-Spacewatch MPS 264693
2008 12 02.30948 02 47 19.93 +22 17 08.0 20.0 V G96 – Mt. Lemmon Survey MPS 267661
2008 12 02.31632 02 47 19.68 +22 17 06.7 20.0 V G96 – Mt. Lemmon Survey MPS 267661
2008 12 02.32317 02 47 19.35 +22 17 06.1 19.9 V G96 – Mt. Lemmon Survey MPS 267661
2008 12 02.33004 02 47 19.03 +22 17 05.4 19.9 V G96 – Mt. Lemmon Survey MPS 267661
2010 02 09.23837 08 53 01.89 +32 05 48.5 20.0 V 703 – Catalina Sky Survey MPS 313500
2010 02 09.24411 08 53 01.60 +32 05 49.8 20.0 V 703 – Catalina Sky Survey MPS 313500
2010 02 09.24979 08 53 01.24 +32 05 51.5 19.8 V 703 – Catalina Sky Survey MPS 313500
2010 02 09.25557 08 53 00.88 +32 05 50.7 19.8 V 703 – Catalina Sky Survey MPS 313500
2010 04 18.419956 08 37 20.040 +28 44 31.09   C51 – WISE MPS 927081
2010 04 18.552259 08 37 24.048 +28 43 40.40   C51 – WISE MPS 927081
2010 04 18.883083 08 37 35.604 +28 41 47.44   C51 – WISE MPS 927081
2010 04 19.147565 08 37 44.753 +28 40 11.28   C51 – WISE MPS 927081
2010 04 19.279997 08 37 49.339 +28 39 26.10   C51 – WISE MPS 927081
2011 03 25.41201 14 27 10.89 -14 16 27.5 20.4 V 691 – Steward Observatory, Kitt Peak-Spacewatch MPS 375622
2011 03 25.42978 14 27 10.31 -14 16 27.6 20.2 V 691 – Steward Observatory, Kitt Peak-Spacewatch MPS 375622
2011 03 25.44755 14 27 09.73 -14 16 27.9 20.2 V 691 – Steward Observatory, Kitt Peak-Spacewatch MPS 375622
2011 03 26.30702 14 26 43.11 -14 16 49.7 20.5 V 691 – Steward Observatory, Kitt Peak-Spacewatch MPS 375622
2011 03 26.32479 14 26 42.54 -14 16 50.4 20.3 V 691 – Steward Observatory, Kitt Peak-Spacewatch MPS 375622
2011 03 26.34256 14 26 41.92 -14 16 50.6 20.4 V 691 – Steward Observatory, Kitt Peak-Spacewatch MPS 375622
2011 04 02.35040 14 22 28.40 -14 17 27.5 20.2 V 691 – Steward Observatory, Kitt Peak-Spacewatch MPS 377236
2011 04 02.36816 14 22 27.69 -14 17 26.7 19.8 V 691 – Steward Observatory, Kitt Peak-Spacewatch MPS 377236
2011 04 02.38591 14 22 26.91 -14 17 27.2 20.0 V 691 – Steward Observatory, Kitt Peak-Spacewatch MPS 377236
2011 04 06.35008 14 19 38.94 -14 16 04.2   691 – Steward Observatory, Kitt Peak-Spacewatch MPS 377236
2011 04 06.36785 14 19 38.14 -14 16 03.7   691 – Steward Observatory, Kitt Peak-Spacewatch MPS 377236
2011 04 06.38562 14 19 37.29 -14 16 03.9   691 – Steward Observatory, Kitt Peak-Spacewatch MPS 377236
2011 04 13.34811 14 14 08.43 -14 10 59.7 19.6 V 691 – Steward Observatory, Kitt Peak-Spacewatch MPS 378706
2011 04 13.36589 14 14 07.51 -14 10 57.5 19.9 V 691 – Steward Observatory, Kitt Peak-Spacewatch MPS 378706
2011 04 13.38365 14 14 06.63 -14 10 56.7 19.9 V 691 – Steward Observatory, Kitt Peak-Spacewatch MPS 378706
2011 04 15.49794 14 12 20.205 -14 08 48.50 19.8 i F51 – Pan-STARRS 1, Haleakala MPS 379726
2011 04 15.52245 14 12 18.913 -14 08 46.73 19.9 r F51 – Pan-STARRS 1, Haleakala MPS 379726
2011 04 15.53272 14 12 18.379 -14 08 46.25 20.0 r F51 – Pan-STARRS 1, Haleakala MPS 379726
2011 04 24.34618 14 04 36.76 -13 57 47.3 19.4 V G96 – Mt. Lemmon Survey MPS 380091
2011 04 24.35422 14 04 36.33 -13 57 46.5 19.4 V G96 – Mt. Lemmon Survey MPS 380091
2011 04 24.36238 14 04 35.86 -13 57 45.6 19.3 V G96 – Mt. Lemmon Survey MPS 380091
2011 04 24.37049 14 04 35.43 -13 57 45.1 19.3 V G96 – Mt. Lemmon Survey MPS 380091
2012 11 02.217513 20 41 37.462 -27 44 33.73 21.2 w F51 – Pan-STARRS 1, Haleakala MPS 439564
2012 11 02.223668 20 41 37.776 -27 44 31.11 21.4 w F51 – Pan-STARRS 1, Haleakala MPS 439564
2012 11 02.229836 20 41 38.107 -27 44 28.64 21.5 w F51 – Pan-STARRS 1, Haleakala MPS 439564
2012 11 02.236054 20 41 38.441 -27 44 25.91 21.3 w F51 – Pan-STARRS 1, Haleakala MPS 439564
2013 07 19.58019 02 08 21.032 +10 11 04.59 21.4 w F51 – Pan-STARRS 1, Haleakala MPS 472980
2013 07 19.58549 02 08 21.300 +10 11 06.43 21.4 w F51 – Pan-STARRS 1, Haleakala MPS 472980
2013 10 02.23783 02 15 18.51 +13 09 33.4 20.4 V 691 – Steward Observatory, Kitt Peak-Spacewatch MPS 479978
2013 10 02.25602 02 15 17.78 +13 09 32.6 20.4 V 691 – Steward Observatory, Kitt Peak-Spacewatch MPS 479978
2013 10 02.27447 02 15 16.99 +13 09 31.9 20.4 V 691 – Steward Observatory, Kitt Peak-Spacewatch MPS 479978
2013 10 03.42229 02 14 29.345 +13 08 39.13 20.2 w F51 – Pan-STARRS 1, Haleakala MPS 479978
2013 10 03.43759 02 14 28.684 +13 08 38.44 20.2 w F51 – Pan-STARRS 1, Haleakala MPS 479978
2013 10 03.45273 02 14 28.021 +13 08 37.63 20.2 w F51 – Pan-STARRS 1, Haleakala MPS 479978
2013 10 06.23897 02 12 26.99 +13 06 02.5 20.1 V 691 – Steward Observatory, Kitt Peak-Spacewatch MPS 482266
2013 10 06.25667 02 12 26.22 +13 06 01.5 20.1 V 691 – Steward Observatory, Kitt Peak-Spacewatch MPS 482266
2013 10 06.27438 02 12 25.34 +13 05 59.7 20.3 V 691 – Steward Observatory, Kitt Peak-Spacewatch MPS 482266
2013 10 08.77011 02 10 30.77 +13 03 13.9 20.9 R D29 – Purple Mountain Observatory, XuYi Station MPS 482266
2013 10 08.80988 02 10 28.86 +13 03 10.2 19.9 R D29 – Purple Mountain Observatory, XuYi Station MPS 482266
2013 10 14.24424 02 06 04.21 +12 55 46.7 20.0 V 691 – Steward Observatory, Kitt Peak-Spacewatch MPS 482266
2013 10 14.26195 02 06 03.28 +12 55 45.3 20.2 V 691 – Steward Observatory, Kitt Peak-Spacewatch MPS 482266
2013 10 14.27965 02 06 02.36 +12 55 43.8 19.9 V 691 – Steward Observatory, Kitt Peak-Spacewatch MPS 482266
2013 10 23.38104 01 58 08.63 +12 40 15.6 19.2 V G96 – Mt. Lemmon Survey MPS 483544
2013 10 23.38572 01 58 08.37 +12 40 15.3 19.3 V G96 – Mt. Lemmon Survey MPS 483544
2013 10 23.39040 01 58 08.11 +12 40 14.7 19.3 V G96 – Mt. Lemmon Survey MPS 483544
2013 10 23.39507 01 58 07.85 +12 40 14.2 19.5 V G96 – Mt. Lemmon Survey MPS 483544
